Stündliche Wetter Holohirky

Heute, 16 Juni, Mittwoch

Zeit Temperatur Niederschläge Wind Luftdruck Luftfeuchtigkeit
00:00 +14°C° 0 mm 2 m/S 735 mmHg 91%
01:00 +14°C° 0 mm 2 m/S 735 mmHg 91%
02:00 +13°C° 0 mm 2 m/S 735 mmHg 91%
03:00 +13°C° 0 mm 2 m/S 735 mmHg 91%
04:00 +13°C° 0 mm 2 m/S 735 mmHg 92%
05:00 +13°C° 0 mm 2 m/S 735 mmHg 92%
06:00 +15°C° 0 mm 2 m/S 735 mmHg 89%
07:00 +17°C° 0 mm 2 m/S 736 mmHg 85%
08:00 +18°C° 0 mm 3 m/S 736 mmHg 81%
09:00 +19°C° 0.1 mm 3 m/S 736 mmHg 77%
10:00 +21°C° 0.1 mm 3 m/S 736 mmHg 73%
11:00 +22°C° 0.1 mm 3 m/S 737 mmHg 69%
12:00 +22°C° 0.2 mm 3 m/S 737 mmHg 68%
13:00 +23°C° 0.2 mm 4 m/S 736 mmHg 67%
14:00 +23°C° 0.2 mm 4 m/S 736 mmHg 66%
15:00 +23°C° 0.3 mm 4 m/S 736 mmHg 70%
16:00 +22°C° 0.3 mm 4 m/S 736 mmHg 73%
17:00 +22°C° 0.3 mm 4 m/S 736 mmHg 77%
18:00 +21°C° 0.3 mm 3 m/S 736 mmHg 81%
19:00 +19°C° 0.3 mm 3 m/S 736 mmHg 84%
20:00 +18°C° 0.3 mm 3 m/S 737 mmHg 88%
21:00 +17°C° 0 mm 2 m/S 737 mmHg 89%
22:00 +16°C° 0 mm 2 m/S 737 mmHg 90%
23:00 +16°C° 0 mm 2 m/S 737 mmHg 91%

Morgen, 17 Juni, Donnerstag

Zeit Temperatur Niederschläge Wind Luftdruck Luftfeuchtigkeit
00:00 +15°C° 0 mm 2 m/S 737 mmHg 91%
01:00 +14°C° 0 mm 2 m/S 737 mmHg 91%
02:00 +14°C° 0 mm 2 m/S 737 mmHg 91%
03:00 +14°C° 0 mm 2 m/S 738 mmHg 91%
04:00 +13°C° 0 mm 1 m/S 738 mmHg 91%
05:00 +13°C° 0 mm 1 m/S 738 mmHg 91%
06:00 +15°C° 0 mm 2 m/S 738 mmHg 87%
07:00 +16°C° 0 mm 2 m/S 738 mmHg 83%
08:00 +18°C° 0 mm 2 m/S 739 mmHg 79%
09:00 +19°C° 0 mm 2 m/S 739 mmHg 75%
10:00 +21°C° 0 mm 3 m/S 739 mmHg 71%
11:00 +22°C° 0 mm 3 m/S 739 mmHg 67%
12:00 +24°C° 0 mm 3 m/S 739 mmHg 66%
13:00 +24°C° 0 mm 3 m/S 739 mmHg 65%
14:00 +25°C° 0 mm 3 m/S 739 mmHg 64%
15:00 +25°C° 0.1 mm 3 m/S 739 mmHg 67%
16:00 +25°C° 0.1 mm 3 m/S 739 mmHg 69%
17:00 +25°C° 0.1 mm 3 m/S 739 mmHg 71%
18:00 +24°C° 0.1 mm 3 m/S 739 mmHg 76%
19:00 +21°C° 0.1 mm 3 m/S 739 mmHg 80%
20:00 +20°C° 0.1 mm 2 m/S 739 mmHg 84%
21:00 +19°C° 0 mm 2 m/S 739 mmHg 86%
22:00 +18°C° 0 mm 2 m/S 739 mmHg 88%
23:00 +18°C° 0 mm 2 m/S 739 mmHg 90%

übermorgen, 18 Juni, Freitag

Zeit Temperatur Niederschläge Wind Luftdruck Luftfeuchtigkeit
00:00 +17°C° 0 mm 2 m/S 739 mmHg 91%
01:00 +17°C° 0 mm 2 m/S 739 mmHg 91%
02:00 +17°C° 0 mm 2 m/S 739 mmHg 92%
03:00 +16°C° 0 mm 2 m/S 739 mmHg 93%
04:00 +16°C° 0 mm 2 m/S 739 mmHg 94%
05:00 +16°C° 0 mm 2 m/S 739 mmHg 94%
06:00 +18°C° 0 mm 2 m/S 739 mmHg 91%
07:00 +19°C° 0 mm 3 m/S 740 mmHg 88%
08:00 +21°C° 0 mm 3 m/S 740 mmHg 84%
09:00 +22°C° 0 mm 4 m/S 740 mmHg 79%
10:00 +23°C° 0 mm 4 m/S 740 mmHg 75%
11:00 +25°C° 0 mm 4 m/S 740 mmHg 70%
12:00 +26°C° 0 mm 4 m/S 739 mmHg 68%
13:00 +26°C° 0 mm 4 m/S 739 mmHg 65%
14:00 +27°C° 0 mm 5 m/S 739 mmHg 63%
15:00 +27°C° 0 mm 4 m/S 739 mmHg 65%
16:00 +26°C° 0 mm 4 m/S 739 mmHg 68%
17:00 +26°C° 0 mm 4 m/S 739 mmHg 70%
18:00 +25°C° 0 mm 4 m/S 739 mmHg 76%
19:00 +22°C° 0 mm 4 m/S 739 mmHg 81%
20:00 +21°C° 0 mm 3 m/S 739 mmHg 87%
21:00 +20°C° 0 mm 3 m/S 739 mmHg 87%
22:00 +20°C° 0 mm 3 m/S 739 mmHg 88%
23:00 +19°C° 0 mm 3 m/S 739 mmHg 89%

19 Juni, Samstag

Zeit Temperatur Niederschläge Wind Luftdruck Luftfeuchtigkeit
00:00 +19°C° 0 mm 3 m/S 739 mmHg 91%
01:00 +18°C° 0 mm 3 m/S 739 mmHg 93%
02:00 +17°C° 0 mm 3 m/S 739 mmHg 96%
03:00 +17°C° 0 mm 3 m/S 739 mmHg 96%
04:00 +17°C° 0 mm 2 m/S 739 mmHg 97%
05:00 +17°C° 0 mm 2 m/S 739 mmHg 97%
06:00 +18°C° 0 mm 3 m/S 739 mmHg 93%
07:00 +20°C° 0 mm 4 m/S 739 mmHg 88%
08:00 +21°C° 0 mm 5 m/S 740 mmHg 83%
09:00 +22°C° 0 mm 5 m/S 739 mmHg 79%
10:00 +23°C° 0 mm 5 m/S 739 mmHg 74%
11:00 +25°C° 0 mm 5 m/S 739 mmHg 70%
12:00 +25°C° 0.2 mm 5 m/S 739 mmHg 69%
13:00 +26°C° 0.2 mm 5 m/S 739 mmHg 69%
14:00 +26°C° 0.2 mm 6 m/S 739 mmHg 68%
15:00 +25°C° 0.8 mm 5 m/S 738 mmHg 74%
16:00 +23°C° 0.8 mm 5 m/S 738 mmHg 79%
17:00 +22°C° 0.8 mm 5 m/S 738 mmHg 84%
18:00 +21°C° 0.3 mm 4 m/S 738 mmHg 87%
19:00 +20°C° 0.3 mm 3 m/S 738 mmHg 90%
20:00 +19°C° 0.3 mm 2 m/S 738 mmHg 93%
21:00 +19°C° 0 mm 2 m/S 738 mmHg 94%
22:00 +18°C° 0 mm 2 m/S 739 mmHg 94%
23:00 +18°C° 0 mm 2 m/S 739 mmHg 95%

20 Juni, Sonntag

Zeit Temperatur Niederschläge Wind Luftdruck Luftfeuchtigkeit
00:00 +17°C° 0 mm 2 m/S 739 mmHg 95%
01:00 +17°C° 0 mm 2 m/S 738 mmHg 95%
02:00 +17°C° 0 mm 2 m/S 738 mmHg 96%
03:00 +17°C° 0 mm 2 m/S 738 mmHg 96%
04:00 +17°C° 0 mm 2 m/S 738 mmHg 96%
05:00 +16°C° 0 mm 2 m/S 738 mmHg 96%
06:00 +18°C° 0 mm 3 m/S 738 mmHg 92%
07:00 +19°C° 0 mm 3 m/S 738 mmHg 88%
08:00 +21°C° 0 mm 4 m/S 738 mmHg 84%
09:00 +22°C° 0.1 mm 4 m/S 738 mmHg 80%
10:00 +23°C° 0.1 mm 4 m/S 738 mmHg 76%
11:00 +25°C° 0.1 mm 5 m/S 738 mmHg 72%
12:00 +26°C° 0.6 mm 5 m/S 738 mmHg 72%
13:00 +26°C° 0.6 mm 5 m/S 738 mmHg 71%
14:00 +26°C° 0.6 mm 5 m/S 738 mmHg 71%
15:00 +26°C° 0 mm 5 m/S 737 mmHg 71%
16:00 +26°C° 0 mm 5 m/S 737 mmHg 71%
17:00 +26°C° 0 mm 4 m/S 737 mmHg 71%
18:00 +25°C° 0 mm 4 m/S 737 mmHg 76%
19:00 +23°C° 0 mm 4 m/S 737 mmHg 81%
20:00 +21°C° 0 mm 3 m/S 737 mmHg 86%
21:00 +20°C° 0 mm 3 m/S 737 mmHg 88%
22:00 +19°C° 0 mm 3 m/S 737 mmHg 91%
23:00 +18°C° 0 mm 3 m/S 737 mmHg 94%

21 Juni, Montag

Zeit Temperatur Niederschläge Wind Luftdruck Luftfeuchtigkeit
00:00 +18°C° 0 mm 3 m/S 736 mmHg 94%
01:00 +18°C° 0 mm 3 m/S 736 mmHg 94%
02:00 +17°C° 0 mm 2 m/S 736 mmHg 95%
03:00 +17°C° 0 mm 2 m/S 736 mmHg 95%
04:00 +17°C° 0 mm 2 m/S 736 mmHg 95%
05:00 +17°C° 0 mm 2 m/S 736 mmHg 95%
06:00 +18°C° 0 mm 3 m/S 736 mmHg 90%
07:00 +20°C° 0 mm 4 m/S 736 mmHg 84%
08:00 +21°C° 0 mm 4 m/S 736 mmHg 79%
09:00 +22°C° 0 mm 4 m/S 736 mmHg 75%
10:00 +23°C° 0 mm 4 m/S 736 mmHg 70%
11:00 +26°C° 0 mm 4 m/S 736 mmHg 66%
12:00 +26°C° 0 mm 4 m/S 735 mmHg 66%
13:00 +26°C° 0 mm 4 m/S 735 mmHg 65%
14:00 +27°C° 0 mm 4 m/S 735 mmHg 65%
15:00 +26°C° 0 mm 4 m/S 735 mmHg 67%
16:00 +26°C° 0 mm 4 m/S 734 mmHg 70%
17:00 +26°C° 0 mm 4 m/S 734 mmHg 73%
18:00 +24°C° 0.2 mm 3 m/S 734 mmHg 77%
19:00 +23°C° 0.2 mm 2 m/S 734 mmHg 82%
20:00 +21°C° 0.2 mm 2 m/S 733 mmHg 86%
21:00 +20°C° 0 mm 2 m/S 733 mmHg 88%
22:00 +20°C° 0 mm 2 m/S 733 mmHg 90%
23:00 +19°C° 0 mm 2 m/S 733 mmHg 92%
Mehr zeigen

Wir brauchen deine Erlaubnis

Meteoprog und unser Service Anbieter werden persönliche Daten aufbewahren, so wie Cookies, Geräte Bezeichnung oder ähnliche Technologien von deinem Gerät und Prozess, so wie Persönliche Daten Inhalte und Werbungen, genauso wie social Media und den Verkehr zu analysieren.

  • Aufbewahrung und/oder Zugang zu deiner Geräte Informationen.

    Cookies, Geräte Bezeichnung oder andere Informationen, können aufbewahrt oder Zugang zu deinem Gerät erhalten, für den Grund, der oben angegeben wird.

  • Personalisierte Werbung und Inhalte, Messungen, Einblick in das Publikum und Produkt Entwicklung.

    Werbungen und Inhalte können personalisiert werden, basierend auf ein Profil. Mehr Daten können besser personalisierte Werbungen und Inhalte hinzufügen. Werbung und Inhalte können gezeigt und gemessen werden. Einblicke über das Publikum, welche die Werbung gesehen haben und den Inhalt, können abgeleitet werden. So wie Daten können genutzt werden, um es zu verbessern oder die Benutzer Erfahrung zu verbessern das System und die Software.

Wenn du “Ich stimme zu” klickst, erlaubst du uns, die Cookies zu benutzen die Geräte Bezeichnung, den Web oder ähnliche Technologien zu benutzen. Deine Settings, können in deinem Gerät bei deinem Browser geändert werden.

Für den bestimmten Zweck, berechtigten Interessen beruhen darauf, mehr als auf den Inhalt. Du kannst mehr darüber in unseren Privaten und Cookie Politik lesen.